Tracking 17996 objects as of 28-February-2017
HD Live streaming from Space Station
objects crossing your sky now

ATLAS CENTAUR DEB

Track ATLAS CENTAUR DEB now!


NORAD ID: 25253
Int'l Code: 1978-068C
Perigee: 857.0 km
Apogee: 35,600.8 km
Inclination: 21.7 °
Period: 640.0 minutes
Semi major axis: 24599 km
RCS: 0.1092 m2 (medium)
Launch date: June 29, 1978
Source: United States (US)
Launch site: AIR FORCE EASTERN TEST RANGE (AFETR)

Note: This is SATELLITE DEBRIS
Your satellite tracking list
Your tracking list is empty





NASA's NSSDC Master Catalog

Two Line Element Set (TLE):
1 25253U 78068C   17055.46188775 -.00000230  00000-0 -11041-2 0  9996
2 25253  21.7339  87.9653 7061787 263.4496 128.8393  2.25010550161396
Source of the keplerian elements: AFSPC